Dryden, TX

10:40 PM CST on November 19, 2017 (GMT -0600)
Dryden

Weather History for K6R6 - June, 2013

Change the Weather History Date:

Wednesday, June 19, 2013

  Actual Average (KFST) Record (KFST)
Temperature  
Mean Temperature 88 °F -  
Max Temperature 102 °F 92 °F 107 °F (2011)
Min Temperature 75 °F 67 °F 66 °F (2003)
Cooling Degree Days 22    
Growing Degree Days 38 (Base 50)    
Moisture  
Dew Point 66 °F    
Average Humidity 51    
Maximum Humidity 76    
Minimum Humidity 29    
Precipitation  
Precipitation 0.00 in - - ()
Sea Level Pressure  
Sea Level Pressure 29.80 in    
Wind  
Wind Speed 11 mph (East)    
Max Wind Speed 25 mph    
Max Gust Speed 31 mph    
Averages and records for this station are not official NWS values.
T = Trace of Precipitation, MM = Missing Value Source: NWS Daily Summary

Daily Weather History Graph

Daily Weather History Graph

Search for Another Location

Airport or City:

Trip Planner

Search our weather history database for the weather conditions in past years. The results will help you decide how hot, cold, wet, or windy it might be!

Date:

Astronomy

Jun. 19, 2013 Rise Set
Actual Time 6:47 AM CDT 8:52 PM CDT
Civil Twilight 6:20 AM CDT 9:20 PM CDT
Nautical Twilight 5:46 AM CDT 9:53 PM CDT
Astronomical Twilight 5:11 AM CDT 10:29 PM CDT
Moon 4:58 PM CDT (6/19) 3:20 AM CDT (6/19)
Length of Visible Light 14h 59m
Length of Day
14h 04m
Waxing Gibbous, 80% of the Moon is Illuminated
Jun 19
Waxing Gibbous
Jun 23
Full
Jun 29
Last Quarter
Jul 8
New
Jul 15
First Quarter

Hourly Weather History & Observations

Time (CDT) Temp. Heat Index Dew Point Humidity Pressure Visibility Wind Dir Wind Speed Gust Speed Precip Events Conditions
12:53 AM 82.9 °F 87.0 °F 70.0 °F 65% 29.82 in - East 9.2 mph - N/A   Unknown
1:53 AM 81.0 °F 84.4 °F 70.0 °F 69% 29.81 in - East 9.2 mph - N/A   Unknown
2:53 AM 81.0 °F 84.1 °F 69.1 °F 67% 29.80 in - East 10.4 mph - N/A   Unknown
3:53 AM 80.1 °F 82.9 °F 69.1 °F 69% 29.79 in - East 6.9 mph - N/A   Unknown
4:53 AM 80.1 °F 82.7 °F 68.0 °F 67% 29.78 in - SE 6.9 mph - N/A   Unknown
5:53 AM 78.1 °F - 66.9 °F 68% 29.80 in - NE 4.6 mph - N/A   Unknown
6:53 AM 75.9 °F - 68.0 °F 76% 29.81 in - NE 5.8 mph - N/A   Unknown
7:53 AM 78.1 °F - 70.0 °F 76% 29.83 in - NE 5.8 mph - N/A   Unknown
8:53 AM 80.1 °F 83.2 °F 70.0 °F 71% 29.84 in - East 8.1 mph - N/A   Unknown
9:53 AM 84.9 °F 89.4 °F 70.0 °F 61% 29.85 in - ESE 9.2 mph - N/A   Unknown
10:53 AM 88.0 °F 91.4 °F 68.0 °F 51% 29.83 in - ESE 9.2 mph - N/A   Unknown
11:53 AM 91.9 °F 94.1 °F 64.9 °F 41% 29.83 in - SE 8.1 mph - N/A   Unknown
12:53 PM 93.9 °F 95.6 °F 64.0 °F 37% 29.81 in - ESE 11.5 mph 17.3 mph N/A   Unknown
1:53 PM 99.0 °F 100.5 °F 63.0 °F 30% 29.79 in - SE 12.7 mph 19.6 mph N/A   Unknown
2:53 PM 100.9 °F 103.3 °F 63.0 °F 29% 29.78 in - SE 15.0 mph 21.9 mph N/A   Unknown
3:53 PM 100.9 °F 103.3 °F 63.0 °F 29% 29.75 in - ESE 13.8 mph 24.2 mph N/A   Unknown
4:53 PM 100.0 °F 101.8 °F 63.0 °F 29% 29.74 in - ESE 18.4 mph 28.8 mph N/A   Unknown
5:53 PM 99.0 °F 101.7 °F 64.0 °F 32% 29.73 in - ESE 18.4 mph 26.5 mph N/A   Unknown
6:53 PM 96.1 °F 98.8 °F 64.9 °F 36% 29.74 in - ESE 18.4 mph 28.8 mph N/A   Unknown
7:53 PM 93.0 °F 95.0 °F 64.9 °F 39% 29.75 in - ESE 25.3 mph 31.1 mph N/A   Unknown
8:53 PM 90.0 °F 91.7 °F 64.9 °F 43% 29.79 in - ESE 21.9 mph 31.1 mph N/A   Unknown
9:53 PM 89.1 °F 91.0 °F 64.9 °F 45% 29.82 in - East 17.3 mph 26.5 mph N/A   Unknown
10:53 PM 87.1 °F 88.3 °F 64.0 °F 46% 29.85 in - East 16.1 mph 21.9 mph N/A   Unknown
11:53 PM 86.0 °F 87.3 °F 64.0 °F 48% 29.87 in - East 12.7 mph - N/A   Unknown